Hourly Data Report for October 02, 2016

All times are specified in Local Standard Time (LST). Add 1 hour to adjust for Daylight Saving Time where and when it is observed.

OTTAWA INTL A
ONTARIO

45°19'00.000" N
75°40'00.000" W
114.90 m
6106001
71628
YOW

Download Data

Hourly Data (October 2016)
Hourly Data Report for October 2, 2016
Temp Definition
°C
Dew Point Temp Definition
°C
Rel Hum Definition
%
Wind Dir Definition
10's deg

Wind Spd Definition
km/h
Visibility Definition
km
Stn Press Definition
kPa
Hmdx Definition


Wind Chill Definition


Weather Definition


TIME
00:00 Legend Double Dagger 13.1 10.8 86 8 20 24.1 100.62     LegendNANA
01:00 Legend Double Dagger 12.7 10.8 88 9 16 24.1 100.62     Cloudy
02:00 Legend Double Dagger 12.2 11.1 93 5 16 16.1 100.54     Rain
03:00 Legend Double Dagger 11.9 11.3 96 8 12 16.1 100.54     Rain
04:00 Legend Double Dagger 11.8 11.3 97 8 11 16.1 100.49     Cloudy
05:00 Legend Double Dagger 11.7 11.6 99 9 12 0.8 100.46     Rain,Drizzle,Fog
06:00 Legend Double Dagger 11.8 11.7 99 8 13 2.4 100.44     Rain,Drizzle,Fog
07:00 Legend Double Dagger 12.3 12.2 99 9 10 2.4 100.42     Rain,Drizzle,Fog
08:00 Legend Double Dagger 12.7 12.6 99 9 12 2.4 100.39     Rain,Drizzle,Fog
09:00 Legend Double Dagger 13.1 13.0 99 11 10 4.8 100.38     Rain,Drizzle,Fog
10:00 Legend Double Dagger 13.8 13.7 99 12 9 4.8 100.35     Rain,Drizzle,Fog
11:00 Legend Double Dagger 14.2 13.9 98 13 9 4.8 100.33     Rain,Drizzle,Fog
12:00 Legend Double Dagger 14.7 14.4 98 13 8 9.7 100.29     Rain,Drizzle,Fog
13:00 Legend Double Dagger 15.0 14.4 96 15 8 16.1 100.22     Cloudy
14:00 Legend Double Dagger 15.5 15.0 97 11 4 9.7 100.17     Fog
15:00 Legend Double Dagger 15.7 15.4 98 4 5 12.9 100.13     LegendNANA
16:00 Legend Double Dagger 14.6 14.5 99 4 14 4.8 100.11     Drizzle,Fog
17:00 Legend Double Dagger 14.3 14.2 99 5 13 4.8 100.12     Drizzle,Fog
18:00 Legend Double Dagger 14.2 14.2 100 6 10 2.4 100.13     Fog
19:00 Legend Double Dagger 14.1 14.1 100 6 8 1.6 100.14     Fog
20:00 Legend Double Dagger 14.1 14.1 100 4 10 0.6 100.16     Fog
21:00 Legend Double Dagger 13.8 13.8 100 4 13 0.6 100.15     Fog
22:00 Legend Double Dagger 13.6 13.6 100 4 8 0.6 100.13     Fog
23:00 Legend Double Dagger 13.5 13.5 100 3 8 1.0 100.15     Fog

Notes on Data Quality.

Legend

  • E = Estimated
  • M = Missing
  • NA = Not Available
  • ‡ = Partner data that is not subject to review by the National Climate Archives
Date modified: